Location: Gull Harbor
(47.1000°N, 122.9000°W)
Time: 05:26:07
(UTC-08:00)

Envisat - Visible Passes

Search period start: 25 February 2018 00:00
Search period end: 07 March 2018 00:00
Orbit: 764 x 766 km, 98.2° (Epoch: 25 February)

Date Brightness Start Highest point End Pass type
(mag) Time Alt. Az. Time Alt. Az. Time Alt. Az.
25 Feb 3.9 18:29:29 10° ESE 18:33:42 27° ENE 18:37:55 10° N visible
25 Feb 4.0 20:07:38 10° S 20:12:29 45° W 20:17:23 10° NNW visible
26 Feb 2.9 19:30:36 10° SSE 19:35:41 87° ENE 19:40:49 10° NNW visible
26 Feb 5.8 21:13:04 10° WSW 21:15:24 13° W 21:17:45 10° WNW visible
27 Feb 3.3 18:54:18 10° SE 18:59:05 43° ENE 19:03:53 10° N visible
27 Feb 4.9 20:33:57 10° SSW 20:38:15 27° W 20:42:35 10° NW visible
28 Feb 3.6 19:56:20 10° S 20:01:18 56° W 20:06:20 10° NNW visible
01 Mar 2.9 19:19:31 10° SSE 19:24:34 71° ENE 19:29:39 10° N visible
01 Mar 5.6 21:00:58 10° SW 21:04:07 16° W 21:07:18 10° NW visible
02 Mar 3.6 18:43:26 10° SE 18:48:01 35° ENE 18:52:37 10° N visible
02 Mar 4.6 20:22:27 10° SSW 20:27:02 34° W 20:31:38 10° NNW visible
03 Mar 3.2 19:45:05 10° S 19:50:09 70° WSW 19:55:15 10° NNW visible
04 Mar 3.0 19:08:30 10° SSE 19:13:28 57° ENE 19:18:28 10° N visible
04 Mar 5.4 20:49:07 10° SW 20:52:51 20° W 20:56:36 10° NW visible
05 Mar 3.9 18:32:38 10° ESE 18:36:58 29° ENE 18:41:18 10° N visible
05 Mar 4.2 20:11:02 10° SSW 20:15:49 41° W 20:20:39 10° NNW visible
06 Mar 3.0 19:33:55 10° SSE 19:39:00 86° WSW 19:44:07 10° NNW visible
06 Mar 5.9 21:16:55 10° WSW 21:18:47 12° W 21:20:39 10° WNW visible
